This is the latest recevied weather packets stored in our database for station/object WC4PEM-4. If no packets are shown the sender has not sent any weather packets the latest 10 day(s).
| Time | Temp. | Humidity | Pressure | Rain* | Wind** | Luminosity | Snow |
|---|---|---|---|---|---|---|---|
| 1788017395 | 31.11° C | 70% | 1018.6 hPa | 0 mm | - | - | - |
| 1788017186 | 31.11° C | 70% | 1018.6 hPa | 0 mm | - | - | - |
| 1788016886 | 31.11° C | 70% | 1018.7 hPa | 0 mm | - | - | - |
| 1788016756 | 31.11° C | 70% | 1018.8 hPa | 0 mm | - | - | - |
| 1788016586 | 31.11° C | 70% | 1018.8 hPa | 0 mm | - | - | - |
| 1788016286 | 31.11° C | 72% | 1018.8 hPa | 0 mm | - | - | - |
| 1788015986 | 30.56° C | 73% | 1018.9 hPa | 0 mm | - | - | - |
| 1788015686 | 30.56° C | 72% | 1019 hPa | 0 mm | - | - | - |
| 1788015503 | 30.56° C | 73% | 1018.9 hPa | 0 mm | - | - | - |
| 1788015386 | 30.56° C | 73% | 1018.9 hPa | 0 mm | - | - | - |
| 1788015086 | 30.56° C | 74% | 1018.7 hPa | 0 mm | - | - | - |
| 1788014786 | 30.56° C | 72% | 1018.6 hPa | 0 mm | - | - | - |
| 1788014486 | 30° C | 73% | 1018.7 hPa | 0 mm | - | - | - |
| 1788014303 | 30° C | 72% | 1018.5 hPa | 0 mm | - | - | - |
| 1788014186 | 30° C | 72% | 1018.5 hPa | 0 mm | - | - | - |
| 1788013886 | 30° C | 76% | 1018.6 hPa | 0 mm | - | - | - |
| 1788013820 | 30° C | 76% | 1018.5 hPa | 0 mm | - | - | - |
| 1788013595 | 30° C | 76% | 1018.5 hPa | 0 mm | - | - | - |
| 1788013286 | 30° C | 76% | 1018.6 hPa | 0 mm | - | - | - |
| 1788012986 | 29.44° C | 75% | 1018.5 hPa | 0 mm | - | - | - |
| 1788012686 | 29.44° C | 75% | 1018.5 hPa | 0 mm | - | - | - |
| 1788012386 | 29.44° C | 78% | 1018.5 hPa | 0 mm | - | - | - |
| 1788012086 | 29.44° C | 80% | 1018.6 hPa | 0 mm | - | - | - |
| 1788011786 | 28.89° C | 81% | 1018.5 hPa | 0 mm | - | - | - |
| 1788011486 | 28.89° C | 81% | 1018.2 hPa | 0 mm | - | - | - |
* Rain latest hour (hover to see other rain measurements)
** Current wind speed in m/s (hover to see current wind gust speed)